Regional Weather Roundup
Issued by NWS

Home | Current Version | Previous Version | Text Only | Print | Product List | Glossary Off
Versions: 1 2 3 4 5 6 7 8 9 10 11 12 13 14 15 16 17 18 19 20 21 22 23 24 25 26 27 28 29 30 31 32 33 34 35 36 37 38 39 40 41 42 43 44 45 46 47 48 49 50

000
ASUS43 KBIS 270401
RWRND

NORTH DAKOTA REGIONAL WEATHER ROUNDUP
NATIONAL WEATHER SERVICE BISMARCK ND
1100 PM CDT THU MAR 26 2015

NOTE: "FAIR" INDICATES FEW OR NO CLOUDS BELOW 12,000 FEET WITH NO
SIGNIFICANT WEATHER AND/OR OBSTRUCTIONS TO VISIBILITY.


NDZ001>003-009>011-017-270500-
NORTHWEST NORTH DAKOTA

CITY           SKY/WX    TMP DP  RH WIND       PRES   REMARKS
WILLISTON      CLOUDY    38  27  64 SE8       30.14S
MINOT          CLEAR     27  17  66 SE9       30.21S WCI  18
MINOT AFB      CLEAR     27  24  90 SE10      30.20S WCI  17
$$

NDZ018>021-031>035-040>046-270500-
SOUTHWEST NORTH DAKOTA

CITY           SKY/WX    TMP DP  RH WIND       PRES   REMARKS
BISMARCK       CLEAR     25  17  72 E7        30.25S WCI  17
DICKINSON      CLOUDY    32  27  81 S9        30.14S
GARRISON         N/A     27  20  75 SE6       30.20F
HETTINGER ARPT CLOUDY    32  26  78 SE9       30.18S
$$

NDZ004>008-012>016-024-026-027-054-270500-
NORTHEAST NORTH DAKOTA

CITY           SKY/WX    TMP DP  RH WIND       PRES   REMARKS
GRAND FORKS    CLEAR     19  14  81 N3        30.31S
GRND FRKS AFB  CLEAR     19  14  82 NE3       30.30S
DEVILS LAKE    CLEAR     21  16  79 SE5       30.26S WCI  15
$$

NDZ022-023-025-028>030-036>039-047>053-270500-
SOUTHEAST NORTH DAKOTA

CITY           SKY/WX    TMP DP  RH WIND       PRES   REMARKS
FARGO          CLEAR     20  10  65 N5        30.30S WCI  13
JAMESTOWN      CLEAR     21  14  74 E5        30.27S WCI  15
$$




USA.gov is the U.S. government's official web portal to all federal, state and local government web resources and services.